Location: Poughquag
(41.6090°N, 73.6820°W)
Time: 14:25:34
(UTC-04:00)

Transit 2A - Pass Details

Date: 29 May 2020
Orbit: 592 x 967 km, 66.7° (Epoch: 05 July)

Event Time Altitude Azimuth Distance (km) Brightness Sun altitude
Rises 22:50:14 0° 332° (NNW) 3,536 11.0 -20.6°
Reaches altitude 10° 22:52:46 10° 337° (NNW) 2,631 9.9 -20.8°
Maximum altitude 22:58:53 57° 56° (NE) 1,118 6.8 -21.3°
Enters shadow 23:01:30 34° 117° (ESE) 1,522 7.1 -21.6°
